Effective Sunday, March 17, 2024, the National Weather Service National Data Buoy Center will discontinue its Dial-A-Buoy Interactive Voice Response system. For more information, see Service Change Notice 24-06 (PDF).

Station MTKN6 - 8510560 - Montauk, NY Image indicating link to RSS feed of recent meteorological observations for station MTKN6


Conditions at MTKN6 as of
(10:30 pm EST on 02/24/2024)
0330 GMT on 02/25/2024:
     

Click on the graph icon in the table below to see a time series plot of the last five days of that observation.

5-day plot - Atmospheric Pressure Atmospheric Pressure (PRES):29.90 in
5-day plot - Air Temperature Air Temperature (ATMP): 31.5 °F
5-day plot - Water Temperature Water Temperature (WTMP): 39.9 °F
NOS Water Level Observation Network Water Level
Previous observations
TIME
(EST)
5-day plot - Wind Direction
WDIR
 
5-day plot - Wind Speed
WSPD
kts
5-day plot - Wind Gust
GST
kts
5-day plot - Wave Height
WVHT
ft
5-day plot - Dominant Wave Period
DPD
sec
5-day plot - Average Wave Period
APD
sec
5-day plot - Mean Wave Direction
MWD
 
5-day plot - Atmospheric Pressure
PRES
in
5-day plot - Pressure Tendency
PTDY
in
5-day plot - Air Temperature
ATMP
°F
5-day plot - Water Temperature
WTMP
°F
5-day plot - Dew Point
DEWP
°F
5-day plot - Salinity
SAL
psu
5-day plot - Visibility
VIS
nmi
5-day plot - Tide (above MLLW)
TIDE
ft
2024-02-24 10:24 pm-------29.89- 31.1 39.9----
2024-02-24 10:18 pm--------- 31.3-----
2024-02-24 10:12 pm--------- 31.5-----
2024-02-24 10:06 pm--------- 31.1-----
2024-02-24 10:00 pm-------29.88+0.11 31.6 39.9----
2024-02-24 09:54 pm-------29.88- 32.0 39.9----
2024-02-24 09:48 pm-------29.88- 32.2 39.9----
2024-02-24 09:42 pm-------29.88- 32.5 39.9----
2024-02-24 09:36 pm-------29.87- 32.4 39.9----
2024-02-24 09:30 pm-------29.87- 32.5 39.9----
2024-02-24 09:24 pm-------29.86- 32.5 39.9----
2024-02-24 09:18 pm-------29.86-- 39.9----
2024-02-24 09:12 pm-------29.86-- 39.9----
2024-02-24 09:06 pm-------29.86-- 39.9----
2024-02-24 09:00 pm-------29.85+0.12- 39.9----
2024-02-24 08:54 pm-------29.85-- 40.1----
2024-02-24 08:48 pm-------29.85-- 40.3----
2024-02-24 08:42 pm-------29.85-- 40.3----
2024-02-24 08:36 pm-------29.85-- 40.3----
2024-02-24 08:30 pm-------29.84- 33.6 40.3----
2024-02-24 08:24 pm-------29.83- 34.0 40.3----
2024-02-24 08:18 pm-------29.83- 34.0 40.3----
2024-02-24 08:12 pm-------29.83- 34.0 40.3----
2024-02-24 08:06 pm-------29.82- 34.5 40.3----
2024-02-24 08:00 pm-------29.82+0.13- 40.3----
2024-02-24 07:54 pm-------29.81-- 40.3----
2024-02-24 07:48 pm-------29.81-- 40.3----
2024-02-24 07:42 pm-------29.80-- 40.3----
2024-02-24 07:36 pm-------29.80-- 40.5----
2024-02-24 07:30 pm-------29.80-- 40.5----
2024-02-24 07:24 pm-------29.79-- 40.5----
2024-02-24 07:18 pm-------29.79- 35.4-----
2024-02-24 07:12 pm-------29.78- 35.6-----
2024-02-24 07:06 pm-------29.78- 35.6-----
2024-02-24 07:00 pm-------29.78+0.13 36.0-----
2024-02-24 06:54 pm-------29.77- 36.1-----
2024-02-24 06:48 pm-------29.77- 36.1 40.5----
2024-02-24 06:42 pm-------29.77- 36.0 40.5----
2024-02-24 06:36 pm-------29.76- 36.1 40.5----
2024-02-24 06:30 pm-------29.76-- 40.5----
2024-02-24 06:24 pm-------29.76-- 40.5----
2024-02-24 06:00 pm-------29.74+0.12 36.9 40.5----
2024-02-24 05:54 pm-------29.73- 37.0 40.5----
2024-02-24 05:48 pm-------29.73- 37.0 40.5----
2024-02-24 05:42 pm-------29.72- 37.0 40.5----
2024-02-24 05:36 pm-------29.72- 37.0 40.5----
2024-02-24 05:30 pm-------29.71- 37.2 40.5----
2024-02-24 05:24 pm-------29.71- 37.4 40.5----
2024-02-24 05:18 pm-------29.70-- 40.5----
2024-02-24 05:12 pm-------29.70-- 40.5----
2024-02-24 05:06 pm-------29.69-- 40.5----
2024-02-24 05:00 pm-------29.69+0.09------
2024-02-24 04:54 pm-------29.68-------
2024-02-24 04:48 pm-------29.68- 37.8-----
2024-02-24 04:42 pm-------29.68- 37.6-----
2024-02-24 04:36 pm-------29.67- 37.8-----
2024-02-24 04:30 pm-------29.67- 37.9 40.5----
2024-02-24 04:24 pm-------29.66- 37.9 40.5----
2024-02-24 04:18 pm-------29.66- 38.1 40.5----
2024-02-24 04:12 pm-------29.65- 38.3 40.5----
2024-02-24 04:06 pm-------29.65- 38.3 40.5----
2024-02-24 04:00 pm-------29.64+0.06 37.9 40.5----
2024-02-24 03:54 pm-------29.64- 37.9 40.5----
2024-02-24 03:48 pm-------29.64-- 40.5----
2024-02-24 03:42 pm-------29.63-- 40.5----
2024-02-24 03:36 pm-------29.63-- 40.5----
2024-02-24 03:30 pm--------- 37.9 40.5----
2024-02-24 03:24 pm--------- 37.8 40.5----
2024-02-24 03:18 pm-------29.63- 37.9 40.5----
2024-02-24 03:12 pm-------29.63- 38.1 40.3----
2024-02-24 03:06 pm-------29.62- 37.8 40.3----
2024-02-24 03:00 pm-------29.62+0.06 37.9 40.3----
2024-02-24 02:54 pm-------29.62- 38.1 40.3----
2024-02-24 02:48 pm-------29.62- 38.1 40.3----
2024-02-24 02:42 pm-------29.62- 38.1 40.3----
2024-02-24 02:36 pm-------29.62- 38.1 40.3----
2024-02-24 02:30 pm-------29.61- 38.3-----
2024-02-24 02:24 pm-------29.61- 38.3-----
2024-02-24 02:18 pm-------29.61- 38.1 40.3----
2024-02-24 02:12 pm-------29.61- 38.3 40.3----
2024-02-24 02:06 pm-------29.60- 38.3 40.3----
2024-02-24 02:00 pm-------29.60+0.04- 40.3----
2024-02-24 01:54 pm-------29.60-- 40.3----
2024-02-24 01:48 pm-------29.59- 38.8 40.3----
2024-02-24 01:42 pm-------29.59- 38.8 40.3----
2024-02-24 01:36 pm-------29.59- 38.8 40.3----
2024-02-24 01:30 pm-------29.59- 39.0 40.3----
2024-02-24 01:24 pm-------29.59- 39.0 40.3----
2024-02-24 01:18 pm-------29.58- 39.0 40.3----
2024-02-24 01:12 pm-------29.58- 39.2 40.1----
2024-02-24 01:06 pm-------29.58- 39.0 40.3----
2024-02-24 01:00 pm-------29.58+0.04- 40.1----
2024-02-24 12:54 pm-------29.57-- 40.1----
2024-02-24 12:48 pm-------29.57-- 40.1----
2024-02-24 12:42 pm-------29.57-- 40.1----
2024-02-24 12:36 pm-------29.57-- 40.1----
2024-02-24 12:30 pm-------29.57- 39.6 40.1----
2024-02-24 12:24 pm-------29.57- 39.6 40.1----
2024-02-24 12:18 pm-------29.57- 39.4 40.1----
2024-02-24 12:12 pm-------29.57- 39.4 40.1----
2024-02-24 12:06 pm-------29.56- 39.6 40.1----
2024-02-24 12:00 pm-------29.56+0.04 39.4 40.1----
2024-02-24 11:54 am-------29.57- 39.6 40.1----
2024-02-24 11:48 am-------29.57-- 40.1----
2024-02-24 11:42 am-------29.56-- 40.1----
2024-02-24 11:36 am-------29.56-- 40.1----
2024-02-24 11:30 am-------29.57-- 40.1----
2024-02-24 11:24 am-------29.57-- 40.1----
2024-02-24 11:18 am--------- 39.9 40.1----
2024-02-24 11:12 am--------- 39.9 40.1----
2024-02-24 11:06 am--------- 39.9 40.1----
2024-02-24 11:00 am-------29.56-- 40.1----
2024-02-24 10:54 am-------29.56-- 40.1----
2024-02-24 10:48 am-------29.56-- 40.1----
2024-02-24 10:42 am-------29.56-- 40.1----
2024-02-24 10:36 am-------29.55-- 39.9----
2024-02-24 10:30 am-------29.55- 39.9 39.9----
2024-02-24 10:24 am-------29.55- 39.9 39.9----
2024-02-24 10:18 am-------29.55- 40.1 39.9----
2024-02-24 10:12 am-------29.54- 40.1 39.9----
2024-02-24 10:06 am-------29.54- 40.3 39.9----
2024-02-24 10:00 am-------29.54+0.07 40.1 39.9----
2024-02-24 09:54 am-------29.54- 40.1 39.9----
2024-02-24 09:48 am-------29.54-- 39.9----
2024-02-24 09:42 am-------29.53-- 39.9----
2024-02-24 09:36 am-------29.53-- 39.9----
2024-02-24 09:30 am-------29.53- 39.9 39.9----
2024-02-24 09:24 am-------29.53- 39.7 39.9----
2024-02-24 09:18 am-------29.53- 39.6 39.9----
2024-02-24 09:12 am-------29.53- 39.7 39.9----
2024-02-24 09:06 am-------29.53- 39.6 39.9----
2024-02-24 09:00 am-------29.53+0.09 39.6 39.9----
2024-02-24 08:54 am-------29.53- 39.4 39.9----
2024-02-24 08:48 am---------- 39.9----
2024-02-24 08:42 am---------- 39.9----
2024-02-24 08:36 am---------- 39.9----
2024-02-24 08:30 am-------29.52-------
2024-02-24 08:24 am-------29.52-------
2024-02-24 08:18 am-------29.52-------
2024-02-24 08:12 am-------29.51-------
2024-02-24 08:06 am-------29.50-------
2024-02-24 08:00 am--------- 39.7 39.9----
2024-02-24 07:54 am--------- 39.6 39.9----
2024-02-24 07:48 am-------29.49- 39.6 39.9----
2024-02-24 07:42 am-------29.49- 39.6 39.9----
2024-02-24 07:36 am-------29.49- 39.6 39.9----
2024-02-24 07:30 am-------29.48-------
2024-02-24 07:24 am-------29.48-------
2024-02-24 07:18 am-------29.48-- 39.9----
2024-02-24 07:12 am-------29.48-- 39.9----
2024-02-24 07:06 am-------29.47-- 39.9----
2024-02-24 07:00 am-------29.47+0.07 40.3 39.9----
2024-02-24 06:54 am-------29.47- 40.3 39.9----
2024-02-24 06:48 am-------29.46-- 39.9----
2024-02-24 06:42 am-------29.46-- 39.9----
2024-02-24 06:36 am-------29.45-- 39.9----
2024-02-24 06:30 am-------29.45- 40.3 39.9----
2024-02-24 06:24 am-------29.44- 40.5 39.9----
2024-02-24 06:18 am-------29.44- 40.5 39.9----
2024-02-24 06:12 am-------29.44- 40.6 39.9----
2024-02-24 06:06 am-------29.44- 40.6 39.9----
2024-02-24 06:00 am-------29.43-- 39.9----
2024-02-24 05:54 am-------29.43-- 39.9----
2024-02-24 05:48 am-------29.43- 40.6 39.9----
2024-02-24 05:42 am-------29.42- 40.5 39.9----
2024-02-24 05:36 am-------29.42- 40.3 39.9----
2024-02-24 05:30 am-------29.41-- 39.9----
2024-02-24 05:24 am-------29.41-- 39.9----
2024-02-24 05:18 am-------29.41- 40.1 39.9----
2024-02-24 05:12 am-------29.41- 40.1 39.9----
2024-02-24 05:06 am-------29.41- 40.1 39.9----
2024-02-24 05:00 am-------29.41+0.04- 39.9----
2024-02-24 04:54 am-------29.41-- 39.9----
2024-02-24 04:48 am-------29.41-- 39.9----
2024-02-24 04:42 am-------29.41-- 39.9----
2024-02-24 04:36 am-------29.41-- 39.9----
2024-02-24 04:30 am-------29.40-- 39.9----
2024-02-24 04:24 am-------29.40-- 39.9----
2024-02-24 04:18 am-------29.40- 40.5 39.9----
2024-02-24 04:12 am-------29.40- 40.6 39.9----
2024-02-24 04:06 am-------29.40- 40.6 39.9----
2024-02-24 04:00 am-------29.39+0.04 40.5 39.9----
2024-02-24 03:54 am-------29.39- 40.3 39.9----
2024-02-24 03:48 am-------29.39- 39.9 39.9----
2024-02-24 03:42 am-------29.39- 39.9 39.9----
2024-02-24 03:36 am-------29.39- 39.9 39.9----
2024-02-24 03:30 am-------29.39-- 39.9----
2024-02-24 03:24 am-------29.39-- 39.9----
2024-02-24 03:18 am-------29.39-- 39.9----
2024-02-24 03:12 am-------29.38-- 39.9----
2024-02-24 03:06 am-------29.38-- 39.9----
2024-02-24 03:00 am---------- 39.9----
2024-02-24 02:54 am---------- 39.9----
2024-02-24 02:48 am-------29.37-- 39.9----
2024-02-24 02:42 am-------29.37-- 39.9----
2024-02-24 02:36 am-------29.37-- 39.9----
2024-02-24 02:30 am-------29.37-------
2024-02-24 02:24 am-------29.37-------
2024-02-24 02:18 am-------29.37- 39.7 39.9----
2024-02-24 02:12 am-------29.37- 39.7 39.9----
2024-02-24 02:06 am-------29.37- 39.9 39.9----
2024-02-24 02:00 am-------29.37+0.00 39.9 39.9----
2024-02-24 01:54 am-------29.37- 39.9 39.9----
2024-02-24 01:48 am-------29.36-- 39.9----
2024-02-24 01:42 am-------29.36-- 39.9----
2024-02-24 01:36 am-------29.36-- 39.9----
2024-02-24 01:30 am-------29.36- 39.9 39.9----
2024-02-24 01:24 am-------29.36- 40.1 39.9----
2024-02-24 01:18 am-------29.36-- 39.9----
2024-02-24 01:12 am-------29.36-- 39.9----
2024-02-24 01:06 am-------29.36-- 39.9----
2024-02-24 01:00 am-------29.36-0.02 40.3 39.9----
2024-02-24 12:54 am-------29.36- 40.3 39.9----
2024-02-24 12:48 am-------29.36-- 39.9----
2024-02-24 12:42 am-------29.36-- 40.1----
2024-02-24 12:36 am-------29.35-- 40.1----
2024-02-24 12:30 am-------29.35- 40.3 40.1----
2024-02-24 12:24 am-------29.35- 40.3 40.1----
2024-02-24 12:18 am-------29.35- 40.3 39.9----
2024-02-24 12:12 am-------29.35- 40.3 39.9----
2024-02-24 12:06 am-------29.36- 40.3 39.9----
2024-02-24 12:00 am-------29.36-0.02- 39.9----
2024-02-23 11:54 pm-------29.36-- 39.9----
2024-02-23 11:48 pm-------29.37- 40.5 39.7----
2024-02-23 11:42 pm-------29.36- 40.3 39.7----
2024-02-23 11:36 pm-------29.36- 40.5 39.7----
2024-02-23 11:30 pm-------29.37- 40.5 39.7----
2024-02-23 11:24 pm-------29.37- 40.5 39.9----
2024-02-23 11:18 pm-------29.37- 40.5 39.9----
2024-02-23 11:12 pm-------29.37- 40.5 39.9----
2024-02-23 11:06 pm-------29.37- 40.5 39.9----
2024-02-23 11:00 pm-------29.37-0.01 40.5-----
2024-02-23 10:54 pm-------29.36- 40.5-----